CUTE-1 (CO-55)

Last updated on Tue Jul 01 2025 00:03:06 GMT+0000 (Coordinated Universal Time)

1 27844U 03031E 25181.54830544 .00000203 00000+0 10757-3 0 9999 2 27844 98.6754 189.5509 0010700 122.7602 237.4609 14.24009699141653
UTC large
Height (km)
Speed (km/s)
/
Latitude / Longitude
Inclination (degrees)
Orbital Period (minutes)
Azimuth
Elevation
Range (km)
Doppler Factor

Next 0 passes for location: London (51.5072 / 0.1276)

Sorry there are no passes over London.